Time,TemperatureF,DewpointF,PressureIn,WindDirection,WindDirectionDegrees,WindSpeedMPH,WindSpeedGustMPH,Humidity,HourlyPrecipIn,Conditions,Clouds,dailyrainin,SoftwareType,DateUTC
2013-01-02 00:05:00,39.5,38.0,26.26,WSW,258,0.0,0.0,94,0.00,,,0.03,weatherlink.com 1.10,2013-01-02 05:05:00,
2013-01-02 00:20:00,39.5,38.0,26.26,WSW,258,0.0,1.0,94,0.00,,,0.03,weatherlink.com 1.10,2013-01-02 05:20:00,
2013-01-02 00:35:00,39.6,38.0,26.25,WSW,258,0.0,4.0,94,0.00,,,0.03,weatherlink.com 1.10,2013-01-02 05:35:00,
2013-01-02 00:50:00,39.8,38.0,26.25,WSW,258,0.0,5.0,93,0.00,,,0.03,weatherlink.com 1.10,2013-01-02 05:50:00,
2013-01-02 01:05:00,40.1,38.0,26.25,West,259,2.0,6.0,92,0.00,,,0.00,weatherlink.com 1.10,2013-01-02 06:05:00,
2013-01-02 01:20:00,39.9,38.0,26.25,West,259,0.0,4.0,92,0.00,,,0.00,weatherlink.com 1.10,2013-01-02 06:20:00,
2013-01-02 01:35:00,39.8,38.0,26.24,West,259,0.0,4.0,92,0.00,,,0.00,weatherlink.com 1.10,2013-01-02 06:35:00,
2013-01-02 01:50:00,39.8,37.0,26.23,West,259,4.0,5.0,91,0.00,,,0.00,weatherlink.com 1.10,2013-01-02 06:50:00,
2013-01-02 02:05:00,39.8,37.0,26.24,West,263,5.0,7.0,91,0.00,,,0.00,weatherlink.com 1.10,2013-01-02 07:05:00,
2013-01-02 02:20:00,40.2,38.0,26.24,West,276,2.0,7.0,91,0.00,,,0.00,weatherlink.com 1.10,2013-01-02 07:20:00,
2013-01-02 02:36:00,40.1,38.0,26.25,NW,317,4.0,8.0,90,0.00,,,0.00,weatherlink.com 1.10,2013-01-02 07:36:00,
2013-01-02 02:51:00,40.2,38.0,26.24,NNW,333,5.0,8.0,90,0.00,,,0.00,weatherlink.com 1.10,2013-01-02 07:51:00,
2013-01-02 03:06:00,39.8,37.0,26.26,North,350,14.0,18.0,89,0.00,,,0.00,weatherlink.com 1.10,2013-01-02 08:06:00,
2013-01-02 03:21:00,38.3,36.0,26.26,NNW,338,14.0,19.0,90,0.00,,,0.00,weatherlink.com 1.10,2013-01-02 08:21:00,
2013-01-02 03:36:00,37.5,35.0,26.27,NNW,347,15.0,19.0,90,0.00,,,0.00,weatherlink.com 1.10,2013-01-02 08:36:00,
2013-01-02 03:51:00,36.6,34.0,26.26,NNW,344,11.0,19.0,91,0.00,,,0.00,weatherlink.com 1.10,2013-01-02 08:51:00,
2013-01-02 04:06:00,36.3,34.0,26.28,NNW,346,12.0,19.0,90,0.00,,,0.00,weatherlink.com 1.10,2013-01-02 09:06:00,
2013-01-02 04:21:00,36.0,33.0,26.27,NNW,348,7.0,16.0,90,0.00,,,0.00,weatherlink.com 1.10,2013-01-02 09:21:00,
2013-01-02 04:36:00,35.8,33.0,26.27,NW,317,5.0,12.0,90,0.00,,,0.00,weatherlink.com 1.10,2013-01-02 09:36:00,
2013-01-02 04:51:00,35.8,33.0,26.27,NW,316,7.0,13.0,90,0.00,,,0.00,weatherlink.com 1.10,2013-01-02 09:51:00,
2013-01-02 05:06:00,35.6,33.0,26.27,NW,315,6.0,11.0,90,0.00,,,0.00,weatherlink.com 1.10,2013-01-02 10:06:00,
2013-01-02 05:21:00,35.8,33.0,26.26,NW,312,5.0,9.0,89,0.00,,,0.00,weatherlink.com 1.10,2013-01-02 10:21:00,
2013-01-02 05:36:00,36.0,33.0,26.27,NW,315,4.0,8.0,88,0.00,,,0.00,weatherlink.com 1.10,2013-01-02 10:36:00,
2013-01-02 05:51:00,36.3,33.0,26.25,NW,313,2.0,5.0,87,0.00,,,0.00,weatherlink.com 1.10,2013-01-02 10:51:00,
2013-01-02 06:06:00,35.9,32.0,26.26,NW,313,0.0,3.0,87,0.00,,,0.00,weatherlink.com 1.10,2013-01-02 11:06:00,
2013-01-02 06:21:00,35.6,32.0,26.27,NW,313,1.0,5.0,88,0.00,,,0.00,weatherlink.com 1.10,2013-01-02 11:21:00,
2013-01-02 06:36:00,35.8,33.0,26.27,NW,306,1.0,6.0,88,0.00,,,0.00,weatherlink.com 1.10,2013-01-02 11:36:00,
2013-01-02 06:51:00,35.6,32.0,26.27,NW,304,3.0,8.0,88,0.00,,,0.00,weatherlink.com 1.10,2013-01-02 11:51:00,
2013-01-02 07:06:00,35.2,32.0,26.28,NW,309,3.0,7.0,89,0.00,,,0.00,weatherlink.com 1.10,2013-01-02 12:06:00,
2013-01-02 07:21:00,34.7,32.0,26.29,NW,323,4.0,10.0,90,0.00,,,0.00,weatherlink.com 1.10,2013-01-02 12:21:00,
2013-01-02 07:36:00,34.3,31.0,26.30,NW,316,12.0,13.0,89,0.00,,,0.00,weatherlink.com 1.10,2013-01-02 12:36:00,
2013-01-02 07:51:00,33.7,31.0,26.30,NNW,328,7.0,13.0,89,0.00,,,0.00,weatherlink.com 1.10,2013-01-02 12:51:00,
2013-01-02 08:06:00,32.7,30.0,26.30,NNW,347,6.0,19.0,90,0.00,,,0.00,weatherlink.com 1.10,2013-01-02 13:06:00,
2013-01-02 08:21:00,32.5,30.0,26.30,NNW,329,10.0,16.0,90,0.00,,,0.00,weatherlink.com 1.10,2013-01-02 13:21:00,
2013-01-02 08:36:00,31.8,30.0,26.30,NNW,336,17.0,21.0,91,0.00,,,0.00,weatherlink.com 1.10,2013-01-02 13:36:00,
2013-01-02 08:51:00,31.6,30.0,26.32,NNW,343,7.0,17.0,92,0.00,,,0.00,weatherlink.com 1.10,2013-01-02 13:51:00,
2013-01-02 09:06:00,31.5,29.0,26.33,NNW,344,7.0,15.0,91,0.00,,,0.00,weatherlink.com 1.10,2013-01-02 14:06:00,
2013-01-02 09:21:00,31.5,29.0,26.34,NNW,343,5.0,11.0,90,0.00,,,0.00,weatherlink.com 1.10,2013-01-02 14:21:00,
2013-01-02 09:36:00,31.5,29.0,26.32,NNW,344,7.0,13.0,89,0.00,,,0.00,weatherlink.com 1.10,2013-01-02 14:36:00,
2013-01-02 09:51:00,31.6,29.0,26.35,NNW,343,10.0,15.0,88,0.00,,,0.00,weatherlink.com 1.10,2013-01-02 14:51:00,
2013-01-02 10:06:00,31.6,28.0,26.34,NNW,343,9.0,16.0,86,0.00,,,0.00,weatherlink.com 1.10,2013-01-02 15:06:00,
2013-01-02 10:21:00,31.9,28.0,26.36,NNW,343,12.0,16.0,85,0.00,,,0.00,weatherlink.com 1.10,2013-01-02 15:21:00,
2013-01-02 10:36:00,32.1,28.0,26.35,NNW,342,9.0,12.0,84,0.00,,,0.00,weatherlink.com 1.10,2013-01-02 15:36:00,
2013-01-02 10:51:00,31.9,28.0,26.36,North,351,9.0,12.0,84,0.00,,,0.00,weatherlink.com 1.10,2013-01-02 15:51:00,
2013-01-02 11:06:00,32.7,28.0,26.36,NNW,342,5.0,9.0,84,0.00,,,0.00,weatherlink.com 1.10,2013-01-02 16:06:00,
2013-01-02 11:21:00,33.1,28.0,26.35,North,350,9.0,11.0,82,0.00,,,0.00,weatherlink.com 1.10,2013-01-02 16:21:00,
2013-01-02 11:36:00,33.5,29.0,26.34,NNW,344,9.0,10.0,82,0.00,,,0.00,weatherlink.com 1.10,2013-01-02 16:36:00,
2013-01-02 11:51:00,33.2,29.0,26.34,NNW,344,9.0,12.0,83,0.00,,,0.00,weatherlink.com 1.10,2013-01-02 16:51:00,
2013-01-02 12:06:00,33.4,29.0,26.34,North,350,7.0,12.0,83,0.00,,,0.00,weatherlink.com 1.10,2013-01-02 17:06:00,
2013-01-02 12:21:00,34.6,29.0,26.32,NNW,338,3.0,9.0,81,0.00,,,0.00,weatherlink.com 1.10,2013-01-02 17:21:00,
2013-01-02 12:36:00,35.0,30.0,26.33,NW,319,4.0,10.0,81,0.00,,,0.00,weatherlink.com 1.10,2013-01-02 17:36:00,
2013-01-02 12:51:00,34.9,30.0,26.32,NNW,334,7.0,9.0,81,0.00,,,0.00,weatherlink.com 1.10,2013-01-02 17:51:00,
2013-01-02 13:06:00,35.2,30.0,26.32,NNW,342,5.0,10.0,81,0.00,,,0.00,weatherlink.com 1.10,2013-01-02 18:06:00,
2013-01-02 13:22:00,35.6,30.0,26.32,NNW,339,8.0,11.0,80,0.00,,,0.00,weatherlink.com 1.10,2013-01-02 18:22:00,
2013-01-02 13:37:00,36.2,30.0,26.32,North,350,7.0,8.0,78,0.00,,,0.00,weatherlink.com 1.10,2013-01-02 18:37:00,
2013-01-02 13:52:00,36.3,30.0,26.32,NNW,338,8.0,10.0,78,0.00,,,0.00,weatherlink.com 1.10,2013-01-02 18:52:00,
2013-01-02 14:07:00,36.3,30.0,26.32,North,360,7.0,9.0,79,0.00,,,0.00,weatherlink.com 1.10,2013-01-02 19:07:00,
2013-01-02 14:22:00,36.2,30.0,26.32,NNW,334,7.0,9.0,79,0.00,,,0.00,weatherlink.com 1.10,2013-01-02 19:22:00,
2013-01-02 14:37:00,36.2,31.0,26.31,NNW,331,6.0,8.0,80,0.00,,,0.00,weatherlink.com 1.10,2013-01-02 19:37:00,
2013-01-02 14:52:00,35.9,31.0,26.32,NNW,335,6.0,8.0,81,0.00,,,0.00,weatherlink.com 1.10,2013-01-02 19:52:00,
2013-01-02 15:07:00,35.9,31.0,26.33,NNW,335,5.0,6.0,81,0.00,,,0.00,weatherlink.com 1.10,2013-01-02 20:07:00,
2013-01-02 15:22:00,36.0,31.0,26.33,NNW,335,7.0,7.0,81,0.00,,,0.00,weatherlink.com 1.10,2013-01-02 20:22:00,
2013-01-02 15:37:00,36.0,31.0,26.33,NNW,335,6.0,8.0,81,0.00,,,0.00,weatherlink.com 1.10,2013-01-02 20:37:00,
2013-01-02 15:52:00,36.0,31.0,26.33,NNW,338,3.0,7.0,81,0.00,,,0.00,weatherlink.com 1.10,2013-01-02 20:52:00,
2013-01-02 16:07:00,36.0,30.0,26.34,NNW,338,3.0,6.0,80,0.00,,,0.00,weatherlink.com 1.10,2013-01-02 21:07:00,
2013-01-02 16:22:00,36.0,30.0,26.33,NNW,338,4.0,6.0,80,0.00,,,0.00,weatherlink.com 1.10,2013-01-02 21:22:00,
2013-01-02 16:37:00,35.2,30.0,26.34,NNW,339,6.0,7.0,82,0.00,,,0.00,weatherlink.com 1.10,2013-01-02 21:37:00,
2013-01-02 16:52:00,34.4,30.0,26.34,NNW,340,5.0,7.0,84,0.00,,,0.00,weatherlink.com 1.10,2013-01-02 21:52:00,
2013-01-02 17:07:00,33.7,30.0,26.34,NNW,340,7.0,8.0,86,0.00,,,0.00,weatherlink.com 1.10,2013-01-02 22:07:00,
2013-01-02 17:22:00,32.9,30.0,26.35,NNW,341,5.0,9.0,88,0.00,,,0.00,weatherlink.com 1.10,2013-01-02 22:22:00,
2013-01-02 17:37:00,32.7,30.0,26.34,NNW,342,4.0,6.0,88,0.00,,,0.00,weatherlink.com 1.10,2013-01-02 22:37:00,
2013-01-02 17:52:00,32.7,30.0,26.36,NNW,342,4.0,5.0,89,0.00,,,0.00,weatherlink.com 1.10,2013-01-02 22:52:00,
2013-01-02 18:07:00,32.8,30.0,26.37,NNW,342,2.0,4.0,89,0.00,,,0.00,weatherlink.com 1.10,2013-01-02 23:07:00,
2013-01-02 18:22:00,33.1,30.0,26.37,NNW,342,0.0,0.0,89,0.00,,,0.00,weatherlink.com 1.10,2013-01-02 23:22:00,
2013-01-02 18:37:00,33.2,30.0,26.37,NNW,342,0.0,2.0,88,0.00,,,0.00,weatherlink.com 1.10,2013-01-02 23:37:00,
2013-01-02 18:52:00,33.1,30.0,26.37,NNW,342,0.0,3.0,88,0.00,,,0.00,weatherlink.com 1.10,2013-01-02 23:52:00,
2013-01-02 19:07:00,33.4,30.0,26.38,NNW,342,0.0,0.0,88,0.00,,,0.00,weatherlink.com 1.10,2013-01-03 00:07:00,
2013-01-02 19:22:00,33.8,31.0,26.37,NNW,342,0.0,0.0,88,0.00,,,0.00,weatherlink.com 1.10,2013-01-03 00:22:00,
2013-01-02 19:52:00,34.3,31.0,26.36,NNW,342,0.0,1.0,88,0.00,,,0.00,weatherlink.com 1.10,2013-01-03 00:52:00,
2013-01-02 20:07:00,34.4,31.0,26.37,NNW,342,0.0,2.0,88,0.00,,,0.00,weatherlink.com 1.10,2013-01-03 01:07:00,
2013-01-02 20:22:00,34.9,32.0,26.37,NNW,342,0.0,2.0,89,0.00,,,0.00,weatherlink.com 1.10,2013-01-03 01:22:00,
2013-01-02 20:37:00,35.0,32.0,26.38,NNW,342,1.0,4.0,90,0.00,,,0.00,weatherlink.com 1.10,2013-01-03 01:37:00,
2013-01-02 20:52:00,34.9,33.0,26.39,NNW,348,1.0,4.0,91,0.00,,,0.00,weatherlink.com 1.10,2013-01-03 01:52:00,
2013-01-02 21:07:00,34.6,33.0,26.39,North,355,0.0,5.0,92,0.00,,,0.00,weatherlink.com 1.10,2013-01-03 02:07:00,
2013-01-02 21:22:00,34.3,32.0,26.38,North,360,0.0,5.0,92,0.00,,,0.00,weatherlink.com 1.10,2013-01-03 02:22:00,
2013-01-02 21:37:00,34.0,32.0,26.39,NE,40,0.0,5.0,93,0.00,,,0.00,weatherlink.com 1.10,2013-01-03 02:37:00,
2013-01-02 21:52:00,33.8,32.0,26.39,NE,43,0.0,3.0,93,0.00,,,0.00,weatherlink.com 1.10,2013-01-03 02:52:00,
2013-01-02 22:07:00,33.5,32.0,26.40,NE,44,0.0,3.0,93,0.00,,,0.00,weatherlink.com 1.10,2013-01-03 03:07:00,
2013-01-02 22:22:00,33.5,32.0,26.39,NE,44,1.0,2.0,93,0.00,,,0.00,weatherlink.com 1.10,2013-01-03 03:22:00,
2013-01-02 22:52:00,33.1,31.0,26.39,East,88,3.0,8.0,93,0.00,,,0.00,weatherlink.com 1.10,2013-01-03 03:52:00,
2013-01-02 23:07:00,32.8,31.0,26.39,SE,143,2.0,6.0,93,0.00,,,0.00,weatherlink.com 1.10,2013-01-03 04:07:00,
2013-01-02 23:22:00,32.7,31.0,26.39,SE,144,0.0,4.0,93,0.00,,,0.00,weatherlink.com 1.10,2013-01-03 04:22:00,
2013-01-02 23:37:00,32.7,31.0,26.39,SE,144,0.0,5.0,93,0.00,,,0.00,weatherlink.com 1.10,2013-01-03 04:37:00,
2013-01-02 23:52:00,32.5,31.0,26.38,SE,144,3.0,4.0,93,0.00,,,0.00,weatherlink.com 1.10,2013-01-03 04:52:00,